Regional Weather Roundup
Issued by NWS Albany, NY

Home | Current Version | Previous Version | Text Only | Print | Product List | Glossary On
Versions: 1 2 3 4 5 6 7 8 9 10 11 12 13 14 15 16 17 18 19 20 21 22 23 24 25 26 27 28 29 30 31 32 33 34 35 36 37 38 39 40 41 42 43 44 45 46 47 48 49 50
000
ASUS41 KALY 281210
RWRALY

NEW YORK STATE HOURLY WEATHER ROUNDUP
NATIONAL WEATHER SERVICE ALBANY NY
800 AM EDT THU AUG 28 2014

NOTE: "FAIR" INDICATES FEW OR NO CLOUDS BELOW 12,000 FEET WITH NO
SIGNIFICANT WEATHER AND/OR NO OBSTRUCTIONS TO VISIBILITY.

NYZ032-033-038>043-046>054-057>066-NYZ062>081-281300-
EAST


CITY           SKY/WX    TMP DP  RH WIND       PRES   REMARKS
ALBANY         MOSUNNY   66  59  78 NW13      29.92S
GLENS FALLS    SUNNY     66  56  70 N3        29.91S
POUGHKEEPSIE   SUNNY     64  58  80 CALM      29.91R
NEWBURGH       SUNNY     61  57  88 CALM      29.94R
MONTGOMERY     SUNNY     67  55  65 NW8       29.93R
WHITE PLAINS   MOSUNNY   67  58  72 N8        29.90R
ISLIP          MOSUNNY   70  61  73 N14       29.85R
NEW YORK CITY  MOSUNNY   70  56  61 NW9       29.90R
CENTRAL PARK   SUNNY     69  54  58 NW5       29.93R
$$

NYZ005>009-017-018-044>046-055-056-281300-
CENTRAL


CITY           SKY/WX    TMP DP  RH WIND       PRES   REMARKS
FULTON         PTSUNNY   62  58  86 NW7       29.99S
SYRACUSE       CLOUDY    62  57  83 W12       29.99R
ROME           PTSUNNY   60  58  92 W9        29.99R
ELMIRA         CLOUDY    60  55  83 CALM      30.03S
BINGHAMTON     MOSUNNY   57  53  86 NW8       30.01S
MONTICELLO     CLOUDY    61  54  77 NW8       29.99S
$$

NYZ026>034-041>043-281300-
NORTH


CITY           SKY/WX    TMP DP  RH WIND       PRES   REMARKS
WATERTOWN      CLOUDY    63  55  75 N3        29.98S
FORT DRUM      NOT AVBL
MASSENA        PTSUNNY   61  57  87 NW6       29.97R
SARANAC LAKE   CLOUDY    57  53  86 NE3       29.96R
PLATTSBURGH    CLOUDY    64  56  75 NW7       29.93R
$$

NYZ001>004-010>016-019>021-281300-
WEST


CITY           SKY/WX    TMP DP  RH WIND       PRES   REMARKS
NIAGARA FALLS  MOSUNNY   60  54  80 N7        30.08R
BUFFALO        MOSUNNY   60  54  80 NW6       30.08R
DUNKIRK        MOSUNNY   61  53  75 NW9       30.09R
JAMESTOWN      SUNNY     55  52  88 N7        30.10R
WELLSVILLE     CLOUDY    55  49  80 NW9       30.09R
ROCHESTER      PTSUNNY   58  55  90 W7        30.04R
PENN YAN       CLOUDY    60  55  83 W5        30.04S
$$

             KEY
       WCI = WIND CHILL INDEX
       VSB = VISIBILITY
       HX  = HEAT INDEX
$$


USA.gov is the U.S. government's official web portal to all federal, state and local government web resources and services.